sat.trackr.live / text

‹ back to catalog

STARLINK-1788

NORAD 46689 · 2020-073V

PAYLOAD ACTIVE UNKNOWN

§ Identity

Operator
Country
US
Launch date
2020-10-18
Launch site
AFETR
Launch vehicle
Mass (kg)
RCS (m²)

Purposes: comms

External: N2YO · Heavens-Above · Gunter

§ Orbital elements

Epoch: 2026-07-18T18:38:18.298752Z

Period
87.95 min
Inclination
53.0131°
Eccentricity
0.0008503
Mean motion
16.37363168 rev/d
Perigee alt
167.3 km
Apogee alt
178.4 km
Semi-major
6,551.0 km
B*
6.5754e-4
RAAN
279.9002°
Arg perigee
320.1730°
Mean anomaly
39.8690°
Rev number
31,943

§ Raw data

STARLINK-17881 46689U 20073V   26199.77660068  .06702479  12378-4  65754-3 0  99922 46689  53.0131 279.9002 0008503 320.1730  39.8690 16.37363168319438

JSON: /api/v1/satellites/46689 · /tle

For live sub-satellite position, see the globe view (requires WebGL).

§ Visibility from observer

Set your observer location to see the next 7 days of passes ≥ 10°. The values pass through the URL so the page stays shareable.

No JS? Fill the form by hand. The geolocation button needs JavaScript.